TimePDT,TemperatureF,Dew PointF,Humidity,Sea Level PressureIn,VisibilityMPH,Wind Direction,Wind SpeedMPH,Gust SpeedMPH,PrecipitationIn,Events,Conditions,WindDirDegrees,DateUTC
12:56 AM,60.8,21.2,22,29.87,10.0,SSW,6.9,-,N/A,,Clear,200,2011-11-01 07:56:00
1:56 AM,57.9,21.9,25,29.81,10.0,SW,5.8,-,N/A,,Clear,220,2011-11-01 08:56:00
2:56 AM,57.0,21.9,26,29.80,10.0,SW,8.1,-,N/A,,Clear,220,2011-11-01 09:56:00
3:56 AM,55.0,24.1,30,29.79,10.0,Calm,Calm,-,N/A,,Clear,0,2011-11-01 10:56:00
4:56 AM,55.4,24.8,31,29.83,10.0,SSW,8.1,-,N/A,,Clear,200,2011-11-01 11:56:00
5:56 AM,55.4,24.8,31,29.82,10.0,SSW,6.9,-,N/A,,Clear,210,2011-11-01 12:56:00
6:56 AM,55.9,24.1,29,29.77,10.0,SSW,8.1,-,N/A,,Partly Cloudy,210,2011-11-01 13:56:00
7:56 AM,57.0,24.1,28,29.81,10.0,SSW,5.8,-,N/A,,Clear,210,2011-11-01 14:56:00
8:56 AM,61.0,26.1,26,29.83,10.0,South,9.2,-,N/A,,Clear,190,2011-11-01 15:56:00
9:56 AM,66.2,21.2,18,29.87,10.0,South,5.8,-,N/A,,Clear,170,2011-11-01 16:56:00
10:56 AM,71.1,19.9,14,29.83,10.0,South,11.5,-,N/A,,Clear,180,2011-11-01 17:56:00
11:56 AM,75.0,18.0,12,29.83,10.0,SW,8.1,-,N/A,,Clear,230,2011-11-01 18:56:00
12:56 PM,79.0,23.0,13,29.81,10.0,NNW,20.7,27.6,N/A,,Partly Cloudy,340,2011-11-01 19:56:00
1:56 PM,78.8,24.8,14,29.87,10.0,NNW,17.3,25.3,N/A,,Partly Cloudy,340,2011-11-01 20:56:00
2:56 PM,78.1,23.0,13,29.84,10.0,North,20.7,25.3,N/A,,Partly Cloudy,350,2011-11-01 21:56:00
3:56 PM,75.9,19.9,12,29.87,10.0,North,17.3,33.4,N/A,,Partly Cloudy,360,2011-11-01 22:56:00
4:56 PM,73.9,19.9,13,29.90,10.0,NNW,20.7,35.7,N/A,,Clear,330,2011-11-01 23:56:00
5:56 PM,71.1,17.1,13,29.94,10.0,NNW,21.9,35.7,N/A,,Clear,330,2011-11-02 00:56:00
6:56 PM,68.0,-2.9,6,30.02,10.0,NNW,20.7,33.4,N/A,,Clear,330,2011-11-02 01:56:00
7:56 PM,64.0,-11.0,5,30.06,10.0,NNW,8.1,-,N/A,,Clear,330,2011-11-02 02:56:00
8:56 PM,62.1,-18.0,4,30.09,10.0,NNE,10.4,-,N/A,,Clear,20,2011-11-02 03:56:00
9:56 PM,61.0,-18.9,4,30.12,10.0,North,12.7,-,N/A,,Clear,360,2011-11-02 04:56:00
10:56 PM,57.9,-11.0,6,30.16,10.0,North,15.0,-,N/A,,Clear,10,2011-11-02 05:56:00
11:56 PM,55.0,1.0,11,30.19,10.0,NNE,9.2,-,N/A,,Clear,30,2011-11-02 06:56:00